Find Starlink 36968

NORAD ID: 67995 Int'l Des: 2026-039 Owner: SPXS Country: US Constellation: starlink operational
LEOCIRCULAR

リアルタイム位置

3D地球を読み込み中...

Starlink 36968について

説明を読み込み中...

次回通過

Passes for default location (London). Set your location on the main map for personalized predictions.

高度履歴

Loading altitude history...

軌道要素

1 67995U 26039K 26106.60017765 .00011715 00000-0 42394-3 0 9993
2 67995 43.0004 194.6477 0001283 269.2369 90.8336 15.28395491 7506
Epoch: Apr 16, 2026 • Age: 9 hours

現在のステータス

高度 480.3 km
速度 7.63 km/s
衛星直下点 0.48°N, 178.4°W
打ち上げ日 Feb 27, 2026
運用期間 0.1 years
タイプ internet

技術仕様

分類 Payload
質量 575.00 kg
乾燥質量 530.00 kg
総質量 575.00 kg
長さ 0.30 m
直径 4.10 m
スパン 29.00 m
形状 Box + pan
製造者 SPXS
バスタイプ Starlink V2MO
フェーズステータス In Orbit
所有者/国 SPXS/US

Most Searched